SCP
1 1 1 1 1 0 0 0 0 0 0 0 0 0 0 0 0 0 0 0 0 0 0 0 0 0 0 0 0 0 0 0 0 0 0 0 0 0 0 0 0 0 0 0 0 0 0 0 0
1 1 1 1 0 0 0 0 0 0 0 0 0 0 0 0 0 0 0 0 0 0 0 0 0 0 0 0 0 0 0 0 0 0 0 0 0 0 0 0 0 0 0 0 0 0 0 0 0
0 0 1 0 0 0 0 0 0 0 0 0 0 0 0 0 0 0 0 0 0 0 1 0 0 0 0 0 0 0 0 0 0 0 0 0 0 0 0 0 0 0 0 0 0 0 0 0 0
0 0 0 0 0 0 0 0 0 0 0 0 0 0 0 0 0 0 0 0 0 0 1 1 0 0 0 0 0 0 0 0 0 0 0 0 0 0 0 0 0 0 0 0 0 0 0 0 1
1 1 0 0 0 0 0 0 0 0 0 0 0 0 0 0 0 0 0 0 0 1 1 1 0 0 0 0 0 0 0 0 0 0 0 0 0 0 0 0 0 0 0 0 0 0 0 1 1
1 1 0 0 0 0 0 0 0 0 0 0 0 0 0 0 0 0 0 0 0 1 1 1 0 0 0 0 0 0 0 0 0 0 0 0 0 0 0 0 0 0 0 0 0 0 0 1 1
1 1 0 0 0 0 0 0 0 0 1 1 1 0 0 0 0 0 0 0 0 0 1 1 0 0 0 0 0 0 0 0 0 0 0 0 0 0 0 0 0 0 0 0 0 0 0 1 1
1 1 0 0 0 0 0 0 0 0 1 1 1 1 0 0 0 0 0 0 0 0 1 1 0 0 0 0 0 0 0 0 0 0 0 0 0 0 0 0 0 0 0 0 0 0 0 0 0
1 1 0 0 0 0 0 0 0 1 1 1 1 1 1 1 1 1 1 1 0 0 1 1 1 0 0 0 0 0 0 0 0 0 0 0 0 0 0 0 0 0 0 0 0 0 0 0 0
1 1 0 0 0 0 0 0 0 1 1 1 1 1 1 1 1 1 1 1 1 0 0 1 1 1 0 0 0 0 0 0 0 0 0 0 0 0 0 0 0 0 0 0 0 0 0 0 0
1 0 0 0 0 0 0 0 0 0 1 1 1 1 1 1 1 1 1 1 1 0 0 0 1 0 0 0 0 0 0 0 0 0 0 0 0 0 0 0 0 0 0 0 0 0 0 0 0
0 0 0 0 0 0 0 0 0 0 0 0 0 0 1 1 1 0 1 1 1 1 0 0 0 0 0 0 0 0 0 0 0 0 0 0 0 0 0 0 0 0 0 0 0 0 0 0 0
0 0 0 0 0 0 0 0 0 0 0 0 0 0 1 1 0 0 0 1 1 1 1 0 0 0 0 0 0 0 0 0 0 0 0 0 0 0 0 0 0 0 0 0 0 0 0 0 0
0 0 0 0 0 0 0 0 0 0 0 0 0 0 0 0 0 0 0 0 0 0 1 0 0 0 0 0 0 0 0 0 0 0 0 0 0 0 0 0 0 0 0 0 0 0 0 0 0
0 0 0 0 0 0 0 0 0 0 0 0 0 1 1 0 0 0 0 0 0 0 0 0 0 0 0 0 0 0 0 0 0 0 0 0 0 0 0 0 0 0 0 0 0 0 0 0 0
0 0 0 0 0 0 0 0 0 0 0 0 0 1 1 0 0 0 0 0 0 0 0 0 0 0 0 0 0 0 0 0 0 0 0 0 0 0 0 0 0 0 0 0 0 0 0 0 0
0 0 0 0 0 0 0 0 0 0 0 0 1 1 1 1 0 0 0 1 1 0 0 0 0 0 0 0 0 0 0 0 0 0 0 0 0 0 0 0 0 0 0 0 0 0 0 0 0
0 0 0 0 0 0 0 0 0 0 0 0 1 1 1 1 1 1 1 1 1 1 1 0 0 0 0 1 1 0 0 0 0 0 0 0 0 0 0 0 0 0 0 0 0 0 0 0 0
0 0 0 0 0 0 0 0 0 0 0 0 0 1 1 1 1 1 0 0 0 1 1 1 0 0 1 1 1 1 0 0 0 0 0 0 0 0 0 0 0 0 0 0 0 0 0 0 0
0 0 0 0 0 0 0 0 0 0 0 0 0 1 1 1 1 0 0 0 0 0 1 1 1 1 1 1 1 1 1 1 0 0 0 0 0 0 0 0 0 0 0 0 0 0 0 0 0
0 0 0 0 0 0 0 0 0 0 0 0 0 0 1 1 0 0 0 0 0 0 0 0 1 1 1 1 1 1 1 1 1 1 0 0 0 0 0 0 0 0 0 0 0 0 0 0 0
0 0 0 0 0 0 0 0 0 0 0 0 0 0 0 0 0 0 0 0 0 0 0 0 0 1 1 1 2 2 1 1 1 1 1 1 0 0 0 0 0 0 0 0 0 0 0 0 0
0 0 0 0 0 0 0 0 0 0 0 0 0 0 0 0 0 0 0 0 0 0 1 1 0 0 1 1 2 2 2 1 1 1 1 1 1 1 1 1 1 1 0 0 0 0 0 0 0
0 0 0 0 0 0 0 0 0 0 0 0 0 0 0 0 0 0 0 0 0 1 1 1 1 0 0 1 1 2 2 2 2 1 1 2 1 1 1 1 1 1 1 1 1 1 0 0 0
0 0 0 0 0 0 0 0 0 0 0 0 0 0 0 0 0 0 0 0 0 0 1 1 1 0 0 0 1 1 2 2 2 2 1 1 1 1 1 1 1 1 1 1 1 1 1 1 1
0 0 0 0 0 0 0 0 0 0 0 0 0 0 0 0 0 0 0 0 0 0 0 0 0 0 0 0 0 1 1 2 2 1 1 1 0 0 0 0 0 0 0 0 0 1 1 1 1
0 0 0 0 0 0 0 0 0 0 0 0 0 0 0 0 0 0 0 0 0 0 0 0 0 0 0 0 0 0 1 1 1 1 0 0 0 0 0 0 0 0 0 0 0 0 0 0 0
0 0 0 0 0 0 0 0 0 0 0 0 0 0 0 0 0 0 0 0 0 0 0 0 0 0 0 0 0 0 0 0 0 0 0 0 0 0 0 0 0 0 0 0 0 0 0 0 0
0 0 0 0 0 0 0 0 0 0 0 0 0 0 0 0 0 0 0 0 0 0 0 0 0 0 0 0 0 0 0 0 0 0 0 0 0 0 0 0 0 0 0 0 0 0 0 0 0
0 0 0 0 0 0 0 0 0 0 0 0 0 0 0 0 0 0 0 0 0 0 0 0 0 0 0 0 0 0 0 0 0 0 0 0 0 0 0 0 0 0 0 0 0 0 0 0 0
Wind_Speed
8 3 2 3 3 2 3 1 1 2 3 4 5 4 4 4 4 5 5 3 3 2 3 5 5 7 8 7 7 7 7 7 7 7 7 7 7 7 7 8 8 8 9 9 10 10 10 9 10
5 2 2 2 4 5 4 1 1 2 3 2 4 4 5 5 6 5 4 4 2 3 4 5 6 7 8 7 7 6 6 6 6 6 6 7 7 7 6 6 7 7 7 8 9 9 9 8 8
2 2 1 1 3 4 3 2 1 3 5 3 4 4 4 5 5 4 5 2 2 4 4 6 7 7 8 7 7 7 7 6 6 6 6 6 6 6 6 5 6 6 6 6 7 8 7 7 7
1 2 1 2 4 1 1 2 1 2 4 4 4 5 5 6 6 5 3 2 3 4 4 6 8 8 7 7 7 7 6 6 6 6 6 6 6 6 5 5 4 5 5 5 6 6 6 6 6
1 2 3 4 4 2 1 3 1 1 2 4 3 5 5 6 7 5 4 4 5 5 4 6 8 8 8 8 7 7 7 7 7 6 6 6 6 6 5 4 4 4 4 4 4 5 5 5 5
2 2 5 6 6 4 1 2 1 3 2 3 3 3 5 6 7 5 4 4 5 5 5 5 8 9 8 8 8 7 6 6 6 6 6 6 5 5 5 5 4 3 3 3 3 3 3 4 4
2 3 5 7 6 5 1 1 2 1 2 3 2 2 4 5 5 4 4 5 6 5 5 4 4 5 7 8 8 8 8 7 7 7 6 6 5 5 5 5 5 4 3 3 2 2 2 2 2
1 3 5 7 8 5 1 2 2 3 2 3 3 2 3 3 3 4 5 5 5 5 4 4 3 3 3 4 7 7 8 8 8 8 7 6 5 4 5 4 4 4 4 3 2 1 1 1 1
1 3 6 6 6 4 3 3 3 4 5 5 4 5 4 3 4 5 5 5 5 4 4 3 3 3 3 2 4 4 5 6 6 5 6 4 1 2 1 3 4 4 4 3 3 2 1 0 1
1 4 5 2 2 4 4 3 3 4 5 4 4 5 5 4 5 5 5 4 3 3 3 3 2 3 2 2 2 1 2 2 2 2 2 1 2 2 2 3 3 4 3 2 2 2 1 2 2
2 2 4 2 3 3 3 3 2 4 2 1 1 3 4 4 4 4 3 3 2 2 2 2 2 2 2 2 1 1 1 1 1 3 3 2 2 1 1 1 0 1 2 2 1 2 2 2 2
5 4 2 2 1 2 2 3 3 2 1 2 2 4 5 4 3 2 2 2 2 1 1 2 2 2 2 2 1 1 1 1 2 2 3 2 1 2 2 1 2 2 2 2 2 2 3 3 3
4 5 6 6 7 6 6 4 3 1 1 3 3 5 5 4 3 2 2 1 1 1 1 1 2 2 2 1 1 1 1 1 1 1 2 2 2 2 2 2 2 2 2 3 3 3 3 3 4
6 6 5 4 4 3 4 2 1 2 1 2 2 3 3 3 2 2 1 1 1 1 1 1 1 1 1 1 1 1 1 1 1 1 2 2 2 2 2 2 2 3 3 4 4 4 4 4 3
6 5 3 1 1 1 2 2 4 3 2 1 1 2 2 2 2 1 1 0 1 1 1 1 0 0 1 1 1 1 1 1 1 1 2 2 3 3 3 2 2 3 4 4 4 4 3 4 4
3 3 3 2 1 1 4 5 3 2 3 2 1 1 1 1 1 1 1 1 1 1 1 2 1 1 0 0 0 1 1 1 1 1 1 2 3 3 3 2 3 4 3 3 3 4 3 3 4
2 3 3 2 2 0 4 3 2 2 3 2 2 2 1 0 0 0 1 1 1 2 1 2 2 2 1 1 0 0 1 1 1 2 2 2 3 3 3 3 3 3 3 3 3 3 4 4 4
3 3 3 3 2 1 3 3 2 2 3 4 3 3 2 1 1 0 0 1 1 1 1 1 1 2 1 1 1 0 1 1 1 2 2 3 3 3 3 3 3 3 3 3 3 4 4 4 4
2 3 2 1 0 1 3 4 3 3 3 4 4 3 3 2 1 0 0 0 1 1 2 2 2 1 1 1 1 1 1 1 1 2 3 3 3 3 3 3 3 3 3 4 4 4 4 4 3
2 2 1 0 1 1 2 4 5 4 5 5 5 4 4 2 1 1 1 0 1 0 1 1 2 1 1 1 1 1 1 1 2 2 3 3 4 4 3 3 3 3 3 4 4 4 3 3 2
1 1 2 2 1 2 2 4 4 4 4 4 5 5 4 3 3 2 2 2 1 1 1 1 1 2 1 1 1 1 1 1 2 3 3 4 4 3 3 4 4 4 3 4 4 4 4 4 3
0 0 1 2 2 1 2 3 3 4 4 4 5 4 4 3 3 2 2 2 2 2 2 2 1 1 1 1 1 0 1 2 3 3 3 4 4 4 4 4 4 4 4 4 4 4 4 5 4
1 0 1 2 2 1 2 3 2 3 5 4 4 4 3 3 2 3 3 3 2 2 2 2 1 1 1 1 1 2 2 3 3 3 4 4 3 4 4 4 4 4 4 5 5 4 4 4 5
1 1 2 2 2 3 3 4 3 3 4 3 3 3 2 2 2 2 2 2 2 2 1 2 2 2 2 1 1 2 3 3 4 4 4 4 3 3 4 5 4 4 4 5 6 5 5 5 6
0 1 1 2 2 1 1 3 5 1 2 3 3 2 2 1 2 2 2 2 2 2 2 2 2 3 3 2 2 2 3 3 4 4 4 4 3 4 5 5 5 5 5 6 5 5 5 6 6
0 1 1 1 1 1 1 5 3 0 1 2 2 2 2 2 1 1 2 2 2 2 2 2 2 3 3 3 3 3 3 3 3 4 4 4 4 4 5 5 5 6 6 6 6 5 6 6 7
2 1 1 1 1 2 3 4 5 2 2 2 1 2 2 2 2 2 2 2 2 2 2 2 2 2 3 3 3 4 4 4 4 4 4 4 4 4 5 5 6 6 6 6 6 5 6 6 6
1 2 2 2 2 3 3 4 4 4 4 3 2 2 3 2 2 2 2 2 2 2 2 2 2 2 3 3 3 3 4 4 4 4 5 5 5 5 6 6 6 6 6 6 6 6 6 7 6
2 2 2 1 1 2 3 3 2 4 3 3 2 2 3 3 2 2 2 2 2 2 2 2 2 3 3 3 3 4 4 4 4 4 5 5 5 5 5 6 6 6 6 6 6 6 7 7 7
2 3 4 3 2 2 3 5 0 3 2 3 3 3 3 3 3 2 2 2 2 2 2 2 2 3 3 4 4 4 4 4 4 4 5 5 6 6 6 6 6 6 6 6 6 7 7 8 8
Wind_Direction
330 322 262 235 212 194 185 133 73 77 70 56 61 77 76 50 18 45 19 20 14 124 128 124 89 94 93 91 95 103 107 109 107 107 103 101 99 101 102 97 95 103 108 106 104 100 96 93 91
329 310 242 237 228 200 169 154 140 58 50 84 76 73 76 66 32 39 16 2 18 106 112 113 88 90 90 88 87 90 96 101 103 107 106 101 96 96 101 101 97 100 109 110 108 106 103 99 94
315 312 254 187 217 218 159 109 107 75 59 66 83 55 45 36 27 24 12 11 74 88 79 79 74 87 90 85 83 84 84 87 92 95 97 97 95 93 89 97 103 102 108 112 113 111 108 105 99
258 172 155 189 173 213 279 30 113 126 78 47 86 86 78 39 11 16 37 71 90 82 75 76 60 73 80 83 80 78 79 82 85 86 87 87 88 88 90 87 98 101 107 115 115 118 117 112 107
229 195 174 180 193 180 52 12 43 94 77 55 76 93 87 41 26 45 74 85 85 76 68 79 55 60 65 68 72 75 76 76 78 77 79 82 80 80 81 83 88 96 97 114 116 122 124 120 116
158 194 198 195 189 184 116 19 80 66 78 58 63 99 88 41 33 53 81 90 86 77 69 76 54 53 53 57 58 58 60 67 70 70 72 74 73 73 75 71 69 72 86 97 108 117 126 129 129
184 181 200 195 191 203 202 76 32 85 67 24 0 100 99 43 32 67 89 89 84 78 73 71 72 63 50 49 48 48 50 52 56 59 61 60 60 60 58 54 54 52 59 67 89 107 106 135 139
264 163 187 202 201 207 180 127 56 20 52 37 28 66 66 28 46 90 93 85 81 76 70 66 65 67 70 67 48 43 47 47 49 50 45 50 56 57 51 45 42 39 40 42 47 79 99 93 134
213 188 197 204 197 183 146 146 99 70 88 79 60 48 35 75 105 99 88 76 70 64 59 50 51 46 48 57 52 48 51 46 49 54 44 48 71 79 71 38 30 24 24 26 28 20 22 13 166
118 194 210 222 184 142 120 120 124 130 103 90 84 56 60 99 111 103 91 84 71 60 53 40 38 36 36 39 60 50 55 56 48 48 49 24 16 18 10 36 20 9 4 3 5 3 327 265 248
83 147 160 129 109 129 130 102 76 155 108 73 70 72 87 98 97 98 100 102 98 91 64 33 29 33 36 33 47 34 32 31 30 33 23 7 11 11 349 339 355 305 304 292 302 275 275 285 293
103 73 96 126 113 103 120 133 95 73 92 67 85 108 114 110 101 98 96 94 96 85 63 32 26 26 26 24 37 43 34 28 26 25 17 8 2 346 333 321 312 302 293 294 289 293 290 283 284
113 102 83 85 89 93 97 103 112 110 111 75 92 110 111 108 108 103 89 69 57 58 48 25 22 22 14 18 18 40 32 28 24 18 11 4 352 334 328 325 317 307 300 283 278 275 281 279 281
114 117 105 86 95 102 110 119 166 208 150 94 101 114 113 103 97 90 76 54 17 329 319 357 20 20 19 16 17 26 20 6 360 4 1 352 337 330 320 324 322 320 313 307 291 287 286 284 283
122 118 105 40 173 169 164 212 225 225 212 182 141 132 117 109 104 93 83 41 337 309 309 310 285 12 32 1 11 16 21 9 358 347 346 350 337 326 320 318 316 316 313 313 306 295 292 296 292
150 154 158 78 6 243 215 220 207 201 203 212 202 183 167 135 125 124 80 46 17 2 349 343 351 335 323 324 22 25 17 1 341 333 336 336 328 325 315 315 315 318 314 313 318 316 300 293 290
160 176 186 151 45 170 200 215 201 180 204 228 231 202 184 175 47 59 54 46 31 22 11 3 355 340 321 296 323 47 22 351 333 329 332 326 319 317 308 307 316 316 313 318 324 317 311 303 301
165 175 188 195 50 132 185 215 211 189 210 230 238 231 215 232 261 247 38 41 31 24 26 20 10 343 317 299 282 332 2 330 321 321 323 318 311 310 301 303 312 315 313 317 319 312 309 303 307
129 157 187 206 29 195 203 237 250 234 231 235 238 238 233 241 272 306 294 30 26 28 12 8 3 351 335 309 289 284 313 316 319 322 321 315 311 305 299 304 305 309 301 304 309 307 306 309 318
126 151 205 204 54 202 215 260 256 239 233 241 246 250 245 252 289 316 298 289 289 332 334 335 344 346 333 313 288 283 296 294 300 313 315 316 313 309 297 295 297 296 291 298 305 311 307 304 308
76 234 234 236 260 190 247 253 219 216 222 236 242 244 247 247 260 279 305 315 310 313 311 303 322 338 333 304 300 343 329 328 333 328 324 322 318 311 304 302 296 292 287 290 294 290 289 291 286
124 331 234 234 229 193 251 266 213 211 222 231 237 239 241 239 254 273 287 296 305 312 322 302 301 327 341 322 296 278 310 304 303 306 310 318 322 320 314 310 305 301 295 290 285 284 282 281 281
61 245 231 243 236 242 212 247 249 187 229 230 231 231 238 239 245 257 266 274 291 314 320 315 308 316 335 337 309 274 283 292 303 311 312 314 314 313 315 314 309 303 297 294 292 287 279 273 274
159 171 178 204 230 240 221 230 253 197 225 228 215 217 234 245 254 267 280 288 305 329 335 325 329 339 336 306 291 291 295 305 317 323 321 317 315 312 315 310 304 302 299 297 293 286 278 275 275
258 230 204 192 212 230 128 231 252 249 233 238 225 222 238 257 269 286 296 302 312 328 335 340 344 344 345 341 332 321 311 308 307 312 311 316 319 322 324 322 315 312 307 300 297 295 292 285 283
196 281 306 281 261 318 188 238 245 213 286 262 257 245 242 251 269 287 297 305 310 322 327 337 347 345 347 341 334 330 323 313 312 317 317 316 315 320 328 326 325 324 321 317 312 302 297 295 290
162 161 360 92 84 267 247 258 269 215 232 224 234 249 246 253 258 271 293 306 314 320 320 321 328 340 343 337 333 331 330 324 320 320 315 315 319 323 330 326 322 320 319 320 317 306 308 305 299
5 148 169 189 243 265 267 246 237 212 219 211 232 254 267 267 267 276 296 307 312 313 316 321 320 323 331 336 335 329 328 325 322 321 322 320 321 324 323 324 322 320 318 318 316 310 307 306 303
154 165 168 152 263 256 276 266 207 214 208 212 234 262 279 274 278 282 291 295 305 323 323 321 322 322 327 328 329 332 334 332 328 325 328 327 323 322 321 322 321 319 317 318 316 310 310 306 305
244 214 197 218 207 228 264 275 110 216 217 222 251 269 272 267 269 275 284 300 312 315 315 316 323 323 323 324 326 326 329 330 332 329 328 327 323 323 321 319 314 313 314 314 309 306 308 304 303